Weather History for Marysville, OH

Change the Weather History Date:

Monday, July 8, 2013

  Actual Average (KDLZ) Record (KDLZ)
Temperature  
Mean Temperature 72 °F -  
Max Temperature 80 °F 84 °F 104 °F (1936)
Min Temperature 63 °F 60 °F 48 °F (1954)
Cooling Degree Days 6    
Growing Degree Days 22 (Base 50)    
Moisture  
Dew Point 66 °F    
Average Humidity 83    
Maximum Humidity 92    
Minimum Humidity 67    
Precipitation  
Precipitation 0.66 in - - ()
Sea Level Pressure  
Sea Level Pressure 30.11 in    
Wind  
Wind Speed 4 mph (SW)    
Max Wind Speed 12 mph    
Max Gust Speed 29 mph    
Visibility 9 miles    
Events      
Averages and records for this station are not official NWS values.
T = Trace of Precipitation, MM = Missing Value Source: NWS Daily Summary

Daily Weather History Graph

Daily Weather History Graph

Search for Another Location

Airport:

Trip Planner

Search our weather history database for the weather conditions in past years. The results will help you decide how hot, cold, wet, or windy it might be!

Date:

Astronomy

Jul. 08, 2013 Rise Set
Actual Time 6:11 AM EDT 9:05 PM EDT
Civil Twilight 5:39 AM EDT 9:37 PM EDT
Nautical Twilight 4:58 AM EDT 10:18 PM EDT
Astronomical Twilight 4:10 AM EDT 11:05 PM EDT
Moon 6:40 AM EDT (7/8) 9:06 PM EDT (7/8)
Length of Visible Light 15h 58m
Length of Day
14h 53m
New Moon, 0% of the Moon is Illuminated
Jul 8
New Moon
Jul 15
First Quarter
Jul 22
Full
Jul 29
Last Quarter
Aug 6
New

Hourly Weather History & Observations

Time (EDT) Temp. Heat Index Dew Point Humidity Pressure Visibility Wind Dir Wind Speed Gust Speed Precip Events Conditions
12:14 AM 63.7 °F - 60.6 °F 90% 30.11 in 10.0 mi SW 3.5 mph - N/A   Mostly Cloudy
12:33 AM 63.7 °F - 60.6 °F 90% 30.11 in 10.0 mi Calm Calm - N/A   Mostly Cloudy
12:54 AM 63.7 °F - 60.8 °F 90% 30.11 in 10.0 mi Calm Calm - N/A   Mostly Cloudy
1:14 AM 64.0 °F - 61.2 °F 90% 30.10 in 10.0 mi Calm Calm - 0.01 in   Mostly Cloudy
1:33 AM 64.4 °F - 61.3 °F 90% 30.10 in 10.0 mi Calm Calm - 0.01 in   Mostly Cloudy
1:54 AM 64.4 °F - 61.7 °F 91% 30.10 in 10.0 mi SW 3.5 mph - 0.01 in   Mostly Cloudy
2:14 AM 64.6 °F - 60.8 °F 88% 30.11 in 10.0 mi SW 3.5 mph - N/A   Mostly Cloudy
2:33 AM 64.9 °F - 61.0 °F 87% 30.11 in 10.0 mi SW 6.9 mph - N/A   Overcast
2:54 AM 64.9 °F - 60.8 °F 86% 30.12 in 10.0 mi East 6.9 mph - N/A   Overcast
3:14 AM 65.3 °F - 60.8 °F 85% 30.12 in 10.0 mi SSE 4.6 mph - N/A   Overcast
3:33 AM 65.8 °F - 60.8 °F 84% 30.12 in 7.0 mi Calm Calm - N/A   Overcast
3:54 AM 65.8 °F - 61.3 °F 85% 30.12 in 7.0 mi Calm Calm - N/A   Overcast
4:14 AM 65.3 °F - 61.7 °F 88% 30.11 in 10.0 mi South 3.5 mph - 0.01 in   Overcast
4:33 AM 64.6 °F - 61.7 °F 90% 30.11 in 10.0 mi Calm Calm - 0.01 in   Mostly Cloudy
4:54 AM 63.9 °F - 61.5 °F 92% 30.11 in 7.0 mi SSW 4.6 mph - 0.01 in   Mostly Cloudy
5:13 AM 64.4 °F - 61.7 °F 91% 30.12 in 10.0 mi Calm Calm - N/A   Mostly Cloudy
5:34 AM 64.2 °F - 61.7 °F 91% 30.12 in 10.0 mi South 3.5 mph - N/A   Scattered Clouds
5:54 AM 64.4 °F - 61.7 °F 91% 30.12 in 7.0 mi SSW 4.6 mph - N/A   Mostly Cloudy
6:13 AM 64.6 °F - 62.2 °F 92% 30.12 in 2.5 mi SW 5.8 mph - 0.02 in   Overcast
6:34 AM 65.1 °F - 62.4 °F 91% 30.14 in 1.2 mi North 4.6 mph - 0.06 in   Overcast
6:54 AM 65.3 °F - 63.0 °F 92% 30.13 in 1.5 mi SSW 11.5 mph - 0.15 in   Overcast
7:13 AM 67.1 °F - 64.8 °F 92% 30.13 in 7.0 mi Calm Calm - 0.06 in   Overcast
7:34 AM 67.6 °F - 64.4 °F 89% 30.14 in 10.0 mi SSE 5.8 mph - 0.12 in   Overcast
7:54 AM 68.2 °F - 64.4 °F 88% 30.13 in 10.0 mi South 5.8 mph - 0.17 in   Mostly Cloudy
8:13 AM 68.0 °F - 64.4 °F 88% 30.14 in 10.0 mi South 5.8 mph - 0.02 in   Scattered Clouds
8:33 AM 68.7 °F - 64.9 °F 88% 30.14 in 10.0 mi SSW 5.8 mph - 0.04 in   Mostly Cloudy
8:54 AM 69.1 °F - 65.3 °F 88% 30.14 in 10.0 mi SW 5.8 mph - 0.06 in   Mostly Cloudy
9:13 AM 69.8 °F - 65.5 °F 86% 30.14 in 10.0 mi SW 3.5 mph - 0.01 in   Overcast
9:33 AM 70.5 °F - 66.0 °F 86% 30.15 in 10.0 mi SSW 4.6 mph - 0.02 in   Overcast
9:54 AM 71.1 °F - 65.8 °F 84% 30.14 in 10.0 mi SSW 6.9 mph - 0.02 in   Overcast
10:13 AM 72.5 °F - 66.0 °F 80% 30.14 in 10.0 mi SW 8.1 mph - N/A   Overcast
10:33 AM 72.7 °F - 66.4 °F 81% 30.14 in 10.0 mi SSW 8.1 mph - N/A   Overcast
10:54 AM 74.7 °F - 67.3 °F 78% 30.15 in 10.0 mi SSW 5.8 mph - N/A   Mostly Cloudy
11:13 AM 73.4 °F - 67.3 °F 81% 30.15 in 1.5 mi SW 3.5 mph - 0.01 in   Overcast
11:34 AM 73.4 °F - 69.1 °F 86% 30.14 in 7.0 mi SE 4.6 mph - 0.02 in   Overcast
11:53 AM 73.4 °F - 68.5 °F 85% 30.15 in 10.0 mi South 3.5 mph - 0.03 in   Overcast
12:14 PM 70.5 °F - 63.9 °F 79% 30.15 in 10.0 mi Calm Calm - 0.01 in   Overcast
12:34 PM 72.7 °F - 64.8 °F 76% 30.15 in 10.0 mi Calm Calm - 0.02 in   Overcast
12:53 PM 75.9 °F - 69.4 °F 80% 30.14 in 10.0 mi SSW 6.9 mph - 0.03 in   Mostly Cloudy
1:13 PM 77.2 °F - 70.0 °F 78% 30.14 in 10.0 mi SSW 8.1 mph - 0.01 in   Scattered Clouds
1:34 PM 78.8 °F - 70.3 °F 75% 30.13 in 10.0 mi SW 8.1 mph - 0.01 in   Scattered Clouds
1:53 PM 79.2 °F - 70.0 °F 73% 30.13 in 10.0 mi SW 10.4 mph - 0.02 in   Scattered Clouds
2:13 PM 78.8 °F - 70.2 °F 75% 30.12 in 10.0 mi SSW 9.2 mph - N/A   Mostly Cloudy
2:34 PM 79.2 °F - 69.1 °F 71% 30.12 in 10.0 mi SW 10.4 mph - N/A   Mostly Cloudy
2:53 PM 79.3 °F - 69.3 °F 71% 30.11 in 10.0 mi SW 6.9 mph - 0.01 in   Scattered Clouds
3:13 PM 79.3 °F - 69.6 °F 72% 30.10 in 10.0 mi SW 5.8 mph - N/A   Clear
3:33 PM 79.7 °F - 70.0 °F 72% 30.10 in 10.0 mi SSW 8.1 mph - N/A   Clear
3:53 PM 78.8 °F - 70.2 °F 75% 30.10 in 10.0 mi SW 5.8 mph - N/A   Mostly Cloudy
4:14 PM 75.6 °F - 64.0 °F 67% 30.10 in 1.2 mi SW 4.6 mph 28.8 mph N/A   Overcast
4:33 PM 78.6 °F - 72.0 °F 80% 30.09 in 10.0 mi South 5.8 mph - 0.02 in   Scattered Clouds
4:54 PM 79.3 °F - 71.1 °F 76% 30.08 in 10.0 mi SW 8.1 mph - 0.04 in   Scattered Clouds
5:13 PM 79.3 °F - 71.4 °F 77% 30.08 in 10.0 mi WSW 6.9 mph - 0.01 in   Scattered Clouds
5:34 PM 80.1 °F 83.3 °F 70.2 °F 72% 30.07 in 10.0 mi WSW 9.2 mph - 0.02 in   Clear
5:54 PM 80.1 °F 83.3 °F 70.2 °F 72% 30.07 in 10.0 mi WSW 6.9 mph - 0.03 in   Clear
6:13 PM 79.9 °F - 69.8 °F 71% 30.07 in 10.0 mi SW 5.8 mph - N/A   Clear
6:34 PM 78.4 °F - 69.3 °F 73% 30.06 in 10.0 mi SW 5.8 mph - 0.01 in   Mostly Cloudy
6:54 PM 77.9 °F - 70.0 °F 76% 30.07 in 10.0 mi SW 5.8 mph - 0.02 in   Overcast
7:13 PM 76.8 °F - 70.2 °F 80% 30.07 in 10.0 mi SW 3.5 mph - N/A   Overcast
7:34 PM 76.6 °F - 69.3 °F 78% 30.08 in 10.0 mi SW 3.5 mph - 0.01 in   Overcast
7:53 PM 76.3 °F - 69.6 °F 80% 30.08 in 10.0 mi SSW 3.5 mph - 0.01 in   Overcast
8:13 PM 75.6 °F - 69.8 °F 82% 30.09 in 10.0 mi West 3.5 mph - N/A   Overcast
8:34 PM 73.8 °F - 69.8 °F 87% 30.09 in 7.0 mi Calm Calm - N/A   Overcast
8:53 PM 73.8 °F - 69.6 °F 87% 30.09 in 10.0 mi Calm Calm - N/A   Overcast
9:14 PM 73.8 °F - 70.7 °F 90% 30.09 in 5.0 mi West 3.5 mph - 0.01 in   Overcast
9:34 PM 73.8 °F - 70.0 °F 88% 30.09 in 5.0 mi Calm Calm - 0.01 in   Overcast
9:53 PM 73.8 °F - 69.4 °F 86% 30.09 in 5.0 mi WSW 4.6 mph - 0.01 in   Overcast
10:14 PM 73.4 °F - 68.2 °F 84% 30.10 in 7.0 mi West 9.2 mph - 0.01 in   Overcast
10:34 PM 72.5 °F - 67.5 °F 84% 30.09 in 7.0 mi SSW 6.9 mph - 0.02 in   Overcast
10:53 PM 71.8 °F - 67.5 °F 86% 30.10 in 7.0 mi Calm Calm - 0.02 in   Mostly Cloudy
11:14 PM 71.6 °F - 67.1 °F 86% 30.09 in 5.0 mi South 4.6 mph - N/A   Overcast
11:34 PM 72.0 °F - 65.3 °F 79% 30.08 in 10.0 mi South 10.4 mph - 0.01 in   Mostly Cloudy
11:53 PM 71.6 °F - 66.2 °F 83% 30.08 in 10.0 mi SSW 9.2 mph - 0.02 in   Mostly Cloudy